This is the latest recevied weather packets stored in our database for station/object SQ6XL-13. If no packets are shown the sender has not sent any weather packets the latest 10 day(s).
| Time | Temp. | Humidity | Pressure | Rain* | Wind** | Luminosity | Snow |
|---|---|---|---|---|---|---|---|
| 1777486617 | 5.56° C | 45% | 1028.7 hPa | 0 mm | - | - | - |
| 1777486022 | 6.11° C | 44% | 1028.8 hPa | 0 mm | - | - | - |
| 1777485517 | 6.67° C | 42% | 1028.7 hPa | 0 mm | - | - | - |
| 1777484972 | 6.67° C | 41% | 1028.6 hPa | 0 mm | - | - | - |
| 1777484422 | 6.67° C | 41% | 1028.7 hPa | 0 mm | - | - | - |
| 1777483892 | 7.22° C | 40% | 1028.5 hPa | 0 mm | - | - | - |
| 1777483342 | 7.22° C | 40% | 1028.4 hPa | 0 mm | - | - | - |
| 1777482852 | 7.22° C | 40% | 1028.4 hPa | 0 mm | - | - | - |
| 1777482312 | 7.22° C | 38% | 1028.3 hPa | 0 mm | - | - | - |
| 1777481747 | 7.78° C | 38% | 1028.2 hPa | 0 mm | - | - | - |
| 1777481215 | 7.22° C | 38% | 1028.2 hPa | 0 mm | - | - | - |
| 1777480672 | 7.78° C | 38% | 1028.2 hPa | 0 mm | - | - | - |
| 1777480132 | 8.33° C | 37% | 1028 hPa | 0 mm | - | - | - |
| 1777479535 | 8.33° C | 36% | 1027.9 hPa | 0 mm | - | - | - |
| 1777478997 | 8.33° C | 36% | 1027.8 hPa | 0 mm | - | - | - |
| 1777478507 | 8.33° C | 36% | 1027.9 hPa | 0 mm | - | - | - |
| 1777478002 | 8.33° C | 35% | 1027.9 hPa | 0 mm | - | - | - |
| 1777477519 | 8.33° C | 35% | 1027.9 hPa | 0 mm | - | - | - |
| 1777476955 | 7.78° C | 37% | 1027.8 hPa | 0 mm | - | - | - |
| 1777476392 | 7.78° C | 37% | 1027.9 hPa | 0 mm | - | - | - |
| 1777475872 | 8.89° C | 36% | 1028 hPa | 0 mm | - | - | - |
| 1777475375 | 8.89° C | 35% | 1027.8 hPa | 0 mm | - | - | - |
| 1777474787 | 9.44° C | 35% | 1027.7 hPa | 0 mm | - | - | - |
| 1777474295 | 9.44° C | 35% | 1027.8 hPa | 0 mm | - | - | - |
| 1777473815 | 9.44° C | 35% | 1027.9 hPa | 0 mm | - | - | - |
* Rain latest hour (hover to see other rain measurements)
** Current wind speed in m/s (hover to see current wind gust speed)